Weather History for Zanesville, OH

Change the Weather History Date:

Sunday, December 22, 2013

  Actual Average Record
Temperature  
Mean Temperature 58 °F 31 °F  
Max Temperature 68 °F 39 °F 68 °F (2013)
Min Temperature 48 °F 23 °F -17 °F (1989)
Degree Days  
Heating Degree Days 7 34  
Month to date heating degree days 657 690  
Since 1 July heating degree days 1833 1831  
Cooling Degree Days 0 0  
Month to date cooling degree days 0 0  
Year to date cooling degree days 856 768  
Growing Degree Days 7 (Base 50)    
Moisture  
Dew Point 52 °F    
Average Humidity 76    
Maximum Humidity 90    
Minimum Humidity 62    
Precipitation  
Precipitation 0.50 in 0.08 in 1.63 in (1997)
Month to date precipitation 3.77 1.82  
Year to date precipitation 38.53 37.10  
Sea Level Pressure  
Sea Level Pressure 29.76 in    
Wind  
Wind Speed 10 mph (SW)    
Max Wind Speed 28 mph    
Max Gust Speed 38 mph    
Visibility 8 miles    
Events Rain    
T = Trace of Precipitation, MM = Missing Value Source: NWS Daily Summary

Daily Weather History Graph

Daily Weather History Graph

Search for Another Location

Airport:

Trip Planner

Search our weather history database for the weather conditions in past years. The results will help you decide how hot, cold, wet, or windy it might be!

Date:

Astronomy

Dec. 22, 2013 Rise Set
Actual Time 7:46 AM EST 5:06 PM EST
Civil Twilight 7:15 AM EST 5:36 PM EST
Nautical Twilight 6:41 AM EST 6:11 PM EST
Astronomical Twilight 6:08 AM EST 6:44 PM EST
Moon 10:17 PM EST (12/22) 10:42 AM EST (12/22)
Length of Visible Light 10h 21m
Length of Day
9h 20m
Waning Gibbous, 77% of the Moon is Illuminated
Dec 22
Waning Gibbous
Dec 25
Last Quarter
Jan 1
New
Jan 7
First Quarter
Jan 15
Full

Hourly Weather History & Observations

Time (EST) Temp. Dew Point Humidity Pressure Visibility Wind Dir Wind Speed Gust Speed Precip Events Conditions
12:53 AM 66.9 °F 57.0 °F 70% 29.49 in 10.0 mi South 20.7 mph 35.7 mph N/A   Overcast
1:19 AM 66.2 °F 57.2 °F 73% 29.59 in 1.0 mi WSW 27.6 mph 38.0 mph 0.21 in Rain Light Rain
1:23 AM 64.4 °F 59.0 °F 83% 29.60 in 0.5 mi WSW 24.2 mph 38.0 mph 0.24 in Rain Heavy Rain
1:30 AM 62.6 °F 57.2 °F 82% 29.61 in 1.5 mi WSW 23.0 mph 38.0 mph 0.26 in Rain Rain
1:37 AM 62.6 °F 59.0 °F 88% 29.62 in 2.5 mi WSW 17.3 mph 38.0 mph 0.28 in Rain Rain
1:45 AM 62.6 °F 59.0 °F 88% 29.64 in 4.0 mi West 18.4 mph 32.2 mph 0.30 in Rain Light Rain
1:53 AM 62.1 °F 59.0 °F 90% 29.63 in 6.0 mi WSW 12.7 mph 27.6 mph 0.30 in Rain Light Rain
2:01 AM 62.6 °F 59.0 °F 88% 29.66 in 7.0 mi WSW 11.5 mph 26.5 mph 0.01 in Rain Light Rain
2:23 AM 62.6 °F 57.2 °F 82% 29.67 in 10.0 mi WSW 13.8 mph 26.5 mph 0.02 in Rain Light Rain
2:53 AM 62.1 °F 57.9 °F 86% 29.70 in 8.0 mi WSW 8.1 mph 24.2 mph 0.03 in Rain Light Rain
3:10 AM 62.6 °F 57.2 °F 82% 29.73 in 10.0 mi SW 10.4 mph - 0.00 in Rain Light Rain
3:53 AM 60.1 °F 57.0 °F 90% 29.71 in 10.0 mi SW 4.6 mph - 0.01 in Rain Light Rain
4:53 AM 59.0 °F 55.9 °F 90% 29.68 in 10.0 mi SSE 11.5 mph - 0.02 in   Overcast
5:53 AM 60.1 °F 57.0 °F 90% 29.72 in 7.0 mi South 16.1 mph - 0.04 in Rain Light Rain
6:53 AM 59.0 °F 55.9 °F 90% 29.67 in 7.0 mi SSE 21.9 mph 29.9 mph 0.09 in Rain Light Rain
7:53 AM 60.1 °F 55.0 °F 83% 29.68 in 10.0 mi SSW 10.4 mph 26.5 mph 0.01 in   Overcast
8:53 AM 60.1 °F 53.1 °F 78% 29.73 in 10.0 mi SSW 20.7 mph 27.6 mph 0.00 in   Overcast
9:37 AM 60.8 °F 53.6 °F 77% 29.75 in 10.0 mi SSW 18.4 mph 28.8 mph N/A   Overcast
9:53 AM 60.1 °F 54.0 °F 80% 29.74 in 10.0 mi SSW 17.3 mph 24.2 mph N/A   Overcast
10:53 AM 60.1 °F 54.0 °F 80% 29.77 in 8.0 mi SSW 16.1 mph 29.9 mph N/A   Overcast
11:53 AM 60.1 °F 52.0 °F 75% 29.78 in 10.0 mi WSW 16.1 mph 26.5 mph N/A   Overcast
12:53 PM 60.1 °F 48.9 °F 67% 29.78 in 10.0 mi SW 12.7 mph 25.3 mph N/A   Overcast
1:53 PM 59.0 °F 48.0 °F 67% 29.80 in 10.0 mi SW 9.2 mph 20.7 mph N/A   Scattered Clouds
2:53 PM 59.0 °F 46.9 °F 64% 29.81 in 10.0 mi SW 11.5 mph 17.3 mph N/A   Clear
3:53 PM 59.0 °F 46.9 °F 64% 29.83 in 10.0 mi SW 8.1 mph - N/A   Mostly Cloudy
4:53 PM 57.0 °F 44.1 °F 62% 29.86 in 10.0 mi West 9.2 mph - N/A   Overcast
5:53 PM 55.0 °F 44.1 °F 67% 29.89 in 10.0 mi WSW 6.9 mph - N/A   Overcast
6:53 PM 53.1 °F 44.1 °F 71% 29.91 in 10.0 mi West 3.5 mph - N/A   Overcast
7:53 PM 53.1 °F 42.1 °F 66% 29.92 in 10.0 mi West 9.2 mph - N/A   Overcast
8:53 PM 51.1 °F 42.1 °F 71% 29.96 in 10.0 mi West 6.9 mph - N/A   Overcast
9:53 PM 50.0 °F 43.0 °F 77% 29.96 in 10.0 mi West 3.5 mph - N/A   Overcast
10:46 PM 48.2 °F 42.8 °F 82% 29.96 in 10.0 mi Calm Calm - N/A   Overcast
10:53 PM 48.9 °F 42.1 °F 77% 29.96 in 10.0 mi Calm Calm - N/A   Overcast
11:53 PM 48.9 °F 42.1 °F 77% 29.99 in 10.0 mi Calm Calm - N/A   Overcast